Time,TemperatureF,DewpointF,PressureIn,WindDirection,WindDirectionDegrees,WindSpeedMPH,WindSpeedGustMPH,Humidity,HourlyPrecipIn,Conditions,Clouds,dailyrainin,SoftwareType,DateUTC
2013-05-31 00:01:00,65.8,61.2,30.16,SSE,152,0.0,-999.0,85,0.00,,,0.00,Wunderground v.1.15,2013-05-31 04:01:00,
2013-05-31 00:02:00,65.7,61.1,30.16,SSE,152,0.0,-999.0,85,0.00,,,0.00,Wunderground v.1.15,2013-05-31 04:02:00,
2013-05-31 00:04:00,65.7,61.1,30.17,SSE,152,0.0,-999.0,85,0.00,,,0.00,Wunderground v.1.15,2013-05-31 04:04:00,
2013-05-31 00:05:00,65.6,61.0,30.17,SSE,152,0.0,-999.0,85,0.00,,,0.00,Wunderground v.1.15,2013-05-31 04:05:00,
2013-05-31 00:09:00,65.5,61.2,30.17,SSE,152,0.0,-999.0,86,0.00,,,0.00,Wunderground v.1.15,2013-05-31 04:09:00,
2013-05-31 00:15:00,65.4,61.1,30.17,SSE,152,0.0,-999.0,86,0.00,,,0.00,Wunderground v.1.15,2013-05-31 04:15:00,
2013-05-31 00:21:00,65.3,61.0,30.17,SSE,152,0.0,-999.0,86,0.00,,,0.00,Wunderground v.1.15,2013-05-31 04:21:00,
2013-05-31 00:27:00,65.2,60.9,30.17,SSE,152,0.0,-999.0,86,0.00,,,0.00,Wunderground v.1.15,2013-05-31 04:27:00,
2013-05-31 00:33:00,65.0,60.7,30.17,SSE,152,0.0,-999.0,86,0.00,,,0.00,Wunderground v.1.15,2013-05-31 04:33:00,
2013-05-31 00:39:00,64.9,60.9,30.17,SSE,152,0.0,-999.0,87,0.00,,,0.00,Wunderground v.1.15,2013-05-31 04:39:00,
2013-05-31 00:45:00,64.8,60.8,30.17,SSE,152,0.0,-999.0,87,0.00,,,0.00,Wunderground v.1.15,2013-05-31 04:45:00,
2013-05-31 00:50:00,64.8,60.8,30.17,SSE,152,0.0,-999.0,87,0.00,,,0.00,Wunderground v.1.15,2013-05-31 04:50:00,
2013-05-31 00:56:00,64.6,60.6,30.17,SSE,152,0.0,-999.0,87,0.00,,,0.00,Wunderground v.1.15,2013-05-31 04:56:00,
2013-05-31 01:02:00,64.5,60.9,30.17,SSE,152,0.0,-999.0,88,0.00,,,0.00,Wunderground v.1.15,2013-05-31 05:02:00,
2013-05-31 01:08:00,64.5,61.2,30.17,SSE,152,0.0,-999.0,89,0.00,,,0.00,Wunderground v.1.15,2013-05-31 05:08:00,
2013-05-31 01:13:00,64.8,61.2,30.17,SSW,213,0.0,-999.0,88,0.00,,,0.00,Wunderground v.1.15,2013-05-31 05:13:00,
2013-05-31 01:19:00,66.7,62.0,30.17,West,275,1.0,-999.0,85,0.00,,,0.00,Wunderground v.1.15,2013-05-31 05:19:00,
2013-05-31 01:25:00,68.6,62.9,30.17,SSW,209,2.0,-999.0,82,0.00,,,0.00,Wunderground v.1.15,2013-05-31 05:25:00,
2013-05-31 01:30:00,70.0,63.2,30.17,SE,144,2.0,-999.0,79,0.00,,,0.00,Wunderground v.1.15,2013-05-31 05:30:00,
2013-05-31 01:36:00,70.7,63.1,30.17,SW,229,1.0,-999.0,77,0.00,,,0.00,Wunderground v.1.15,2013-05-31 05:36:00,
2013-05-31 01:42:00,70.9,63.3,30.17,SW,229,1.0,-999.0,77,0.00,,,0.00,Wunderground v.1.15,2013-05-31 05:42:00,
2013-05-31 01:48:00,70.8,63.2,30.17,South,185,1.0,-999.0,77,0.00,,,0.00,Wunderground v.1.15,2013-05-31 05:48:00,
2013-05-31 01:54:00,70.8,63.6,30.17,SSW,195,2.0,-999.0,78,0.00,,,0.00,Wunderground v.1.15,2013-05-31 05:54:00,
2013-05-31 02:00:00,70.8,63.6,30.17,South,178,2.0,-999.0,78,0.00,,,0.00,Wunderground v.1.15,2013-05-31 06:00:00,
2013-05-31 02:06:00,70.8,63.6,30.17,WSW,251,3.0,-999.0,78,0.00,,,0.00,Wunderground v.1.15,2013-05-31 06:06:00,
2013-05-31 02:11:00,70.7,63.5,30.17,WSW,243,3.0,-999.0,78,0.00,,,0.00,Wunderground v.1.15,2013-05-31 06:11:00,
2013-05-31 02:17:00,70.5,63.7,30.17,SW,232,2.0,-999.0,79,0.00,,,0.00,Wunderground v.1.15,2013-05-31 06:17:00,
2013-05-31 02:23:00,70.4,63.9,30.17,South,171,2.0,-999.0,80,0.00,,,0.00,Wunderground v.1.15,2013-05-31 06:23:00,
2013-05-31 02:29:00,70.2,63.7,30.17,WSW,238,2.0,-999.0,80,0.00,,,0.00,Wunderground v.1.15,2013-05-31 06:29:00,
2013-05-31 02:35:00,70.2,63.7,30.17,SSW,212,2.0,-999.0,80,0.00,,,0.00,Wunderground v.1.15,2013-05-31 06:35:00,
2013-05-31 02:41:00,70.1,64.0,30.17,SW,227,2.0,-999.0,81,0.00,,,0.00,Wunderground v.1.15,2013-05-31 06:41:00,
2013-05-31 02:47:00,70.1,64.0,30.17,SW,229,3.0,-999.0,81,0.00,,,0.00,Wunderground v.1.15,2013-05-31 06:47:00,
2013-05-31 02:53:00,70.0,63.9,30.17,WSW,253,2.0,-999.0,81,0.00,,,0.00,Wunderground v.1.15,2013-05-31 06:53:00,
2013-05-31 02:58:00,69.8,64.1,30.17,WNW,290,1.0,-999.0,82,0.00,,,0.00,Wunderground v.1.15,2013-05-31 06:58:00,
2013-05-31 03:04:00,69.7,64.0,30.17,ESE,113,2.0,-999.0,82,0.00,,,0.00,Wunderground v.1.15,2013-05-31 07:04:00,
2013-05-31 03:10:00,69.6,63.9,30.17,SW,229,2.0,-999.0,82,0.00,,,0.00,Wunderground v.1.15,2013-05-31 07:10:00,
2013-05-31 03:16:00,69.5,64.1,30.17,SW,215,1.0,-999.0,83,0.00,,,0.00,Wunderground v.1.15,2013-05-31 07:16:00,
2013-05-31 03:21:00,69.5,64.1,30.17,SSW,209,2.0,-999.0,83,0.00,,,0.00,Wunderground v.1.15,2013-05-31 07:21:00,
2013-05-31 03:27:00,69.4,64.0,30.17,SSW,202,2.0,-999.0,83,0.00,,,0.00,Wunderground v.1.15,2013-05-31 07:27:00,
2013-05-31 03:33:00,69.3,64.3,30.17,SW,223,2.0,-999.0,84,0.00,,,0.00,Wunderground v.1.15,2013-05-31 07:33:00,
2013-05-31 03:39:00,69.2,64.2,30.17,South,184,2.0,-999.0,84,0.00,,,0.00,Wunderground v.1.15,2013-05-31 07:39:00,
2013-05-31 03:45:00,69.1,64.1,30.17,South,180,2.0,-999.0,84,0.00,,,0.00,Wunderground v.1.15,2013-05-31 07:45:00,
2013-05-31 03:51:00,69.0,64.0,30.17,SW,216,2.0,-999.0,84,0.00,,,0.00,Wunderground v.1.15,2013-05-31 07:51:00,
2013-05-31 03:57:00,68.8,64.1,30.17,WSW,246,1.0,-999.0,85,0.00,,,0.00,Wunderground v.1.15,2013-05-31 07:57:00,
2013-05-31 04:02:00,68.7,64.0,30.17,West,275,1.0,-999.0,85,0.00,,,0.00,Wunderground v.1.15,2013-05-31 08:02:00,
2013-05-31 04:08:00,68.7,64.0,30.17,SW,215,2.0,-999.0,85,0.00,,,0.00,Wunderground v.1.15,2013-05-31 08:08:00,
2013-05-31 04:14:00,68.6,64.2,30.17,West,279,1.0,-999.0,86,0.00,,,0.00,Wunderground v.1.15,2013-05-31 08:14:00,
2013-05-31 04:20:00,68.4,64.0,30.17,SW,221,1.0,-999.0,86,0.00,,,0.00,Wunderground v.1.15,2013-05-31 08:20:00,
2013-05-31 04:25:00,68.4,64.0,30.17,SSE,163,1.0,-999.0,86,0.00,,,0.00,Wunderground v.1.15,2013-05-31 08:25:00,
2013-05-31 04:31:00,68.3,63.9,30.16,West,267,1.0,-999.0,86,0.00,,,0.00,Wunderground v.1.15,2013-05-31 08:31:00,
2013-05-31 04:37:00,68.1,64.1,30.16,WSW,252,1.0,-999.0,87,0.00,,,0.00,Wunderground v.1.15,2013-05-31 08:37:00,
2013-05-31 04:43:00,67.9,63.9,30.16,WSW,251,0.0,-999.0,87,0.00,,,0.00,Wunderground v.1.15,2013-05-31 08:43:00,
2013-05-31 04:49:00,67.6,63.6,30.16,WSW,250,0.0,-999.0,87,0.00,,,0.00,Wunderground v.1.15,2013-05-31 08:49:00,
2013-05-31 04:55:00,67.4,63.7,30.16,SSW,198,0.0,-999.0,88,0.00,,,0.00,Wunderground v.1.15,2013-05-31 08:55:00,
2013-05-31 05:01:00,67.2,63.5,30.16,SSW,198,0.0,-999.0,88,0.00,,,0.00,Wunderground v.1.15,2013-05-31 09:01:00,
2013-05-31 05:06:00,67.1,63.7,30.16,SSW,198,0.0,-999.0,89,0.00,,,0.00,Wunderground v.1.15,2013-05-31 09:06:00,
2013-05-31 05:12:00,66.9,63.6,30.17,SSW,196,0.0,-999.0,89,0.00,,,0.00,Wunderground v.1.15,2013-05-31 09:12:00,
2013-05-31 05:18:00,66.8,63.5,30.17,SSW,196,0.0,-999.0,89,0.00,,,0.00,Wunderground v.1.15,2013-05-31 09:18:00,
2013-05-31 05:24:00,66.7,63.4,30.17,SSW,196,0.0,-999.0,89,0.00,,,0.00,Wunderground v.1.15,2013-05-31 09:24:00,
2013-05-31 05:29:00,66.5,63.5,30.17,SSW,196,0.0,-999.0,90,0.00,,,0.00,Wunderground v.1.15,2013-05-31 09:29:00,
2013-05-31 05:35:00,66.3,63.3,30.17,SSW,196,0.0,-999.0,90,0.00,,,0.00,Wunderground v.1.15,2013-05-31 09:35:00,
2013-05-31 05:41:00,66.3,63.6,30.17,SSW,202,0.0,-999.0,91,0.00,,,0.00,Wunderground v.1.15,2013-05-31 09:41:00,
2013-05-31 05:47:00,66.3,63.6,30.17,SSW,202,0.0,-999.0,91,0.00,,,0.00,Wunderground v.1.15,2013-05-31 09:47:00,
2013-05-31 05:53:00,66.2,63.5,30.17,SSW,202,0.0,-999.0,91,0.00,,,0.00,Wunderground v.1.15,2013-05-31 09:53:00,
2013-05-31 05:58:00,66.2,63.5,30.17,South,188,0.0,-999.0,91,0.00,,,0.00,Wunderground v.1.15,2013-05-31 09:58:00,
2013-05-31 06:04:00,66.1,63.4,30.17,South,188,0.0,-999.0,91,0.00,,,0.00,Wunderground v.1.15,2013-05-31 10:04:00,
2013-05-31 06:10:00,65.9,63.5,30.17,South,188,0.0,-999.0,92,0.00,,,0.00,Wunderground v.1.15,2013-05-31 10:10:00,
2013-05-31 06:16:00,66.0,63.6,30.17,South,177,0.0,-999.0,92,0.00,,,0.00,Wunderground v.1.15,2013-05-31 10:16:00,
2013-05-31 06:21:00,66.0,63.3,30.18,South,177,0.0,-999.0,91,0.00,,,0.00,Wunderground v.1.15,2013-05-31 10:21:00,
2013-05-31 06:27:00,65.8,63.1,30.18,South,177,0.0,-999.0,91,0.00,,,0.00,Wunderground v.1.15,2013-05-31 10:27:00,
2013-05-31 06:33:00,65.8,63.4,30.17,South,177,0.0,-999.0,92,0.00,,,0.00,Wunderground v.1.15,2013-05-31 10:33:00,
2013-05-31 06:39:00,65.8,63.4,30.17,South,177,0.0,-999.0,92,0.00,,,0.00,Wunderground v.1.15,2013-05-31 10:39:00,
2013-05-31 06:45:00,65.9,63.5,30.18,SW,221,0.0,-999.0,92,0.00,,,0.00,Wunderground v.1.15,2013-05-31 10:45:00,
2013-05-31 06:51:00,66.2,64.1,30.18,WSW,244,0.0,-999.0,93,0.00,,,0.00,Wunderground v.1.15,2013-05-31 10:51:00,
2013-05-31 06:57:00,66.7,64.3,30.18,SSW,203,1.0,-999.0,92,0.00,,,0.00,Wunderground v.1.15,2013-05-31 10:57:00,
2013-05-31 07:02:00,67.2,64.5,30.17,SSW,207,1.0,-999.0,91,0.00,,,0.00,Wunderground v.1.15,2013-05-31 11:02:00,
2013-05-31 07:08:00,67.6,64.9,30.18,WSW,240,1.0,-999.0,91,0.00,,,0.00,Wunderground v.1.15,2013-05-31 11:08:00,
2013-05-31 07:14:00,68.0,65.0,30.17,South,186,1.0,-999.0,90,0.00,,,0.00,Wunderground v.1.15,2013-05-31 11:14:00,
2013-05-31 07:20:00,68.4,65.0,30.17,SW,225,1.0,-999.0,89,0.00,,,0.00,Wunderground v.1.15,2013-05-31 11:20:00,
2013-05-31 07:25:00,68.8,65.4,30.17,SW,215,1.0,-999.0,89,0.00,,,0.00,Wunderground v.1.15,2013-05-31 11:25:00,
2013-05-31 07:31:00,69.1,65.4,30.17,WSW,255,0.0,-999.0,88,0.00,,,0.00,Wunderground v.1.15,2013-05-31 11:31:00,
2013-05-31 07:37:00,69.2,65.5,30.17,SSW,206,1.0,-999.0,88,0.00,,,0.00,Wunderground v.1.15,2013-05-31 11:37:00,
2013-05-31 07:43:00,69.4,65.7,30.18,WSW,249,2.0,-999.0,88,0.00,,,0.00,Wunderground v.1.15,2013-05-31 11:43:00,
2013-05-31 07:49:00,69.9,65.9,30.18,SSW,194,1.0,-999.0,87,0.00,,,0.00,Wunderground v.1.15,2013-05-31 11:49:00,
2013-05-31 07:55:00,70.4,66.0,30.18,SSW,200,1.0,-999.0,86,0.00,,,0.00,Wunderground v.1.15,2013-05-31 11:55:00,
2013-05-31 08:01:00,70.8,66.4,30.18,SW,235,1.0,-999.0,86,0.00,,,0.00,Wunderground v.1.15,2013-05-31 12:01:00,
2013-05-31 08:06:00,70.9,66.5,30.18,West,267,2.0,-999.0,86,0.00,,,0.00,Wunderground v.1.15,2013-05-31 12:06:00,
2013-05-31 08:12:00,71.4,66.7,30.18,WSW,248,3.0,-999.0,85,0.00,,,0.00,Wunderground v.1.15,2013-05-31 12:12:00,
2013-05-31 08:18:00,71.9,66.8,30.18,South,188,2.0,-999.0,84,0.00,,,0.00,Wunderground v.1.15,2013-05-31 12:18:00,
2013-05-31 08:24:00,72.1,66.6,30.18,West,271,3.0,-999.0,83,0.00,,,0.00,Wunderground v.1.15,2013-05-31 12:24:00,
2013-05-31 08:29:00,72.5,67.0,30.18,WSW,254,4.0,-999.0,83,0.00,,,0.00,Wunderground v.1.15,2013-05-31 12:29:00,
2013-05-31 08:35:00,73.0,67.2,30.18,West,262,4.0,-999.0,82,0.00,,,0.00,Wunderground v.1.15,2013-05-31 12:35:00,
2013-05-31 08:41:00,73.2,67.0,30.19,WSW,254,4.0,-999.0,81,0.00,,,0.00,Wunderground v.1.15,2013-05-31 12:41:00,
2013-05-31 08:47:00,73.5,66.9,30.19,WSW,243,4.0,-999.0,80,0.00,,,0.00,Wunderground v.1.15,2013-05-31 12:47:00,
2013-05-31 08:53:00,73.5,66.9,30.19,WNW,289,4.0,-999.0,80,0.00,,,0.00,Wunderground v.1.15,2013-05-31 12:53:00,
2013-05-31 08:59:00,74.1,67.2,30.19,SSW,210,4.0,-999.0,79,0.00,,,0.00,Wunderground v.1.15,2013-05-31 12:59:00,
2013-05-31 09:05:00,74.0,67.1,30.19,NW,305,5.0,-999.0,79,0.00,,,0.00,Wunderground v.1.15,2013-05-31 13:05:00,
2013-05-31 09:10:00,74.2,66.9,30.19,WSW,243,5.0,-999.0,78,0.00,,,0.00,Wunderground v.1.15,2013-05-31 13:10:00,
2013-05-31 09:16:00,74.6,67.3,30.19,WSW,254,4.0,-999.0,78,0.00,,,0.00,Wunderground v.1.15,2013-05-31 13:16:00,
2013-05-31 09:22:00,75.0,67.3,30.18,NW,312,3.0,-999.0,77,0.00,,,0.00,Wunderground v.1.15,2013-05-31 13:22:00,
2013-05-31 09:28:00,75.2,67.1,30.18,WSW,246,3.0,-999.0,76,0.00,,,0.00,Wunderground v.1.15,2013-05-31 13:28:00,
2013-05-31 09:33:00,75.4,67.3,30.18,SSW,213,3.0,-999.0,76,0.00,,,0.00,Wunderground v.1.15,2013-05-31 13:33:00,
2013-05-31 09:39:00,75.6,67.1,30.18,NW,312,4.0,-999.0,75,0.00,,,0.00,Wunderground v.1.15,2013-05-31 13:39:00,
2013-05-31 09:45:00,75.8,67.7,30.18,SW,233,4.0,-999.0,76,0.00,,,0.00,Wunderground v.1.15,2013-05-31 13:45:00,
2013-05-31 09:51:00,76.1,68.0,30.18,WSW,240,3.0,-999.0,76,0.00,,,0.00,Wunderground v.1.15,2013-05-31 13:51:00,
2013-05-31 09:57:00,76.1,67.6,30.18,WSW,240,3.0,-999.0,75,0.00,,,0.00,Wunderground v.1.15,2013-05-31 13:57:00,
2013-05-31 10:03:00,76.0,66.3,30.18,SW,227,4.0,-999.0,72,0.00,,,0.00,Wunderground v.1.15,2013-05-31 14:03:00,
2013-05-31 10:09:00,75.7,66.4,30.19,WNW,288,4.0,-999.0,73,0.00,,,0.00,Wunderground v.1.15,2013-05-31 14:09:00,
2013-05-31 10:14:00,76.0,66.7,30.19,NNW,344,5.0,-999.0,73,0.00,,,0.00,Wunderground v.1.15,2013-05-31 14:14:00,
2013-05-31 10:20:00,76.4,67.1,30.18,SSW,207,4.0,-999.0,73,0.00,,,0.00,Wunderground v.1.15,2013-05-31 14:20:00,
2013-05-31 10:26:00,77.0,66.9,30.18,West,273,3.0,-999.0,71,0.00,,,0.00,Wunderground v.1.15,2013-05-31 14:26:00,
2013-05-31 10:32:00,77.5,67.4,30.18,West,261,3.0,-999.0,71,0.00,,,0.00,Wunderground v.1.15,2013-05-31 14:32:00,
2013-05-31 10:37:00,77.4,66.8,30.18,West,261,3.0,-999.0,70,0.00,,,0.00,Wunderground v.1.15,2013-05-31 14:37:00,
2013-05-31 10:43:00,77.8,66.8,30.18,West,275,3.0,-999.0,69,0.00,,,0.00,Wunderground v.1.15,2013-05-31 14:43:00,
2013-05-31 10:49:00,78.3,67.3,30.19,West,261,3.0,-999.0,69,0.00,,,0.00,Wunderground v.1.15,2013-05-31 14:49:00,
2013-05-31 10:55:00,78.6,67.2,30.19,WNW,300,3.0,-999.0,68,0.00,,,0.00,Wunderground v.1.15,2013-05-31 14:55:00,
2013-05-31 11:01:00,78.6,67.6,30.19,West,270,3.0,-999.0,69,0.00,,,0.00,Wunderground v.1.15,2013-05-31 15:01:00,
2013-05-31 11:07:00,78.8,66.9,30.19,WSW,258,3.0,-999.0,67,0.00,,,0.00,Wunderground v.1.15,2013-05-31 15:07:00,
2013-05-31 11:13:00,78.7,66.8,30.19,WNW,288,4.0,-999.0,67,0.00,,,0.00,Wunderground v.1.15,2013-05-31 15:13:00,
2013-05-31 11:19:00,78.7,66.8,30.19,West,274,5.0,-999.0,67,0.00,,,0.00,Wunderground v.1.15,2013-05-31 15:19:00,
2013-05-31 11:24:00,79.0,66.7,30.19,WNW,291,4.0,-999.0,66,0.00,,,0.00,Wunderground v.1.15,2013-05-31 15:24:00,
2013-05-31 11:30:00,80.1,66.8,30.19,WNW,288,2.0,-999.0,64,0.00,,,0.00,Wunderground v.1.15,2013-05-31 15:30:00,
2013-05-31 11:36:00,79.9,66.2,30.19,South,188,2.0,-999.0,63,0.00,,,0.00,Wunderground v.1.15,2013-05-31 15:36:00,
2013-05-31 11:42:00,79.9,65.2,30.19,SW,221,4.0,-999.0,61,0.00,,,0.00,Wunderground v.1.15,2013-05-31 15:42:00,
2013-05-31 11:48:00,80.7,66.5,30.19,SW,225,4.0,-999.0,62,0.00,,,0.00,Wunderground v.1.15,2013-05-31 15:48:00,
2013-05-31 11:54:00,80.8,66.1,30.18,West,274,3.0,-999.0,61,0.00,,,0.00,Wunderground v.1.15,2013-05-31 15:54:00,
2013-05-31 12:00:00,81.0,65.8,30.18,NW,313,3.0,-999.0,60,0.00,,,0.00,Wunderground v.1.15,2013-05-31 16:00:00,
2013-05-31 12:06:00,81.1,65.4,30.18,WSW,240,4.0,-999.0,59,0.00,,,0.00,Wunderground v.1.15,2013-05-31 16:06:00,
2013-05-31 12:11:00,80.8,66.1,30.18,SSW,213,5.0,-999.0,61,0.00,,,0.00,Wunderground v.1.15,2013-05-31 16:11:00,
2013-05-31 12:17:00,80.9,65.2,30.18,SW,221,4.0,-999.0,59,0.00,,,0.00,Wunderground v.1.15,2013-05-31 16:17:00,
2013-05-31 12:23:00,80.9,65.2,30.17,West,272,5.0,-999.0,59,0.00,,,0.00,Wunderground v.1.15,2013-05-31 16:23:00,
2013-05-31 12:29:00,80.7,64.5,30.17,WSW,257,4.0,-999.0,58,0.00,,,0.00,Wunderground v.1.15,2013-05-31 16:29:00,
2013-05-31 12:35:00,81.2,64.5,30.17,SSW,207,4.0,-999.0,57,0.00,,,0.00,Wunderground v.1.15,2013-05-31 16:35:00,
2013-05-31 12:41:00,81.5,65.8,30.17,SSE,161,4.0,-999.0,59,0.00,,,0.00,Wunderground v.1.15,2013-05-31 16:41:00,
2013-05-31 12:47:00,81.1,65.9,30.17,SSW,210,4.0,-999.0,60,0.00,,,0.00,Wunderground v.1.15,2013-05-31 16:47:00,
2013-05-31 12:52:00,80.9,66.2,30.17,West,265,4.0,-999.0,61,0.00,,,0.00,Wunderground v.1.15,2013-05-31 16:52:00,
2013-05-31 12:58:00,80.6,65.9,30.17,SSW,213,5.0,-999.0,61,0.00,,,0.00,Wunderground v.1.15,2013-05-31 16:58:00,
2013-05-31 13:04:00,80.7,66.0,30.17,WSW,240,4.0,-999.0,61,0.00,,,0.00,Wunderground v.1.15,2013-05-31 17:04:00,
2013-05-31 13:10:00,81.1,66.4,30.17,SSW,208,4.0,-999.0,61,0.00,,,0.00,Wunderground v.1.15,2013-05-31 17:10:00,
2013-05-31 13:15:00,81.5,66.3,30.17,SSW,210,4.0,-999.0,60,0.00,,,0.00,Wunderground v.1.15,2013-05-31 17:15:00,
2013-05-31 13:21:00,82.0,65.8,30.16,South,172,4.0,-999.0,58,0.00,,,0.00,Wunderground v.1.15,2013-05-31 17:21:00,
2013-05-31 13:27:00,82.4,66.1,30.16,West,262,5.0,-999.0,58,0.00,,,0.00,Wunderground v.1.15,2013-05-31 17:27:00,
2013-05-31 13:33:00,82.2,66.4,30.16,WNW,295,4.0,-999.0,59,0.00,,,0.00,Wunderground v.1.15,2013-05-31 17:33:00,
2013-05-31 13:39:00,82.6,66.8,30.15,West,261,5.0,-999.0,59,0.00,,,0.00,Wunderground v.1.15,2013-05-31 17:39:00,
2013-05-31 13:45:00,83.1,65.8,30.15,South,183,5.0,-999.0,56,0.00,,,0.00,Wunderground v.1.15,2013-05-31 17:45:00,
2013-05-31 13:51:00,82.1,65.4,30.15,SSE,160,5.0,-999.0,57,0.00,,,0.00,Wunderground v.1.15,2013-05-31 17:51:00,
2013-05-31 13:56:00,81.8,65.1,30.15,SSE,150,5.0,-999.0,57,0.00,,,0.00,Wunderground v.1.15,2013-05-31 17:56:00,
2013-05-31 14:02:00,81.7,65.0,30.15,SSW,198,4.0,-999.0,57,0.00,,,0.00,Wunderground v.1.15,2013-05-31 18:02:00,
2013-05-31 14:08:00,82.3,64.5,30.15,WNW,294,4.0,-999.0,55,0.00,,,0.00,Wunderground v.1.15,2013-05-31 18:08:00,
2013-05-31 14:14:00,83.4,65.0,30.14,South,169,5.0,-999.0,54,0.00,,,0.00,Wunderground v.1.15,2013-05-31 18:14:00,
2013-05-31 14:19:00,83.8,64.8,30.14,WNW,284,4.0,-999.0,53,0.00,,,0.00,Wunderground v.1.15,2013-05-31 18:19:00,
2013-05-31 14:25:00,83.4,64.5,30.14,West,265,4.0,-999.0,53,0.00,,,0.00,Wunderground v.1.15,2013-05-31 18:25:00,
2013-05-31 14:31:00,84.0,64.5,30.13,SSW,211,4.0,-999.0,52,0.00,,,0.00,Wunderground v.1.15,2013-05-31 18:31:00,
2013-05-31 14:37:00,83.3,64.4,30.13,SSW,198,4.0,-999.0,53,0.00,,,0.00,Wunderground v.1.15,2013-05-31 18:37:00,
2013-05-31 14:43:00,83.3,65.4,30.13,SW,220,5.0,-999.0,55,0.00,,,0.00,Wunderground v.1.15,2013-05-31 18:43:00,
2013-05-31 14:49:00,83.8,65.4,30.13,SW,236,5.0,-999.0,54,0.00,,,0.00,Wunderground v.1.15,2013-05-31 18:49:00,
2013-05-31 14:55:00,84.3,64.8,30.13,SW,223,6.0,-999.0,52,0.00,,,0.00,Wunderground v.1.15,2013-05-31 18:55:00,
2013-05-31 15:00:00,83.9,64.9,30.12,SSE,161,6.0,-999.0,53,0.00,,,0.00,Wunderground v.1.15,2013-05-31 19:00:00,
2013-05-31 15:06:00,82.5,65.2,30.12,SE,134,5.0,-999.0,56,0.00,,,0.00,Wunderground v.1.15,2013-05-31 19:06:00,
2013-05-31 15:12:00,82.7,65.4,30.12,West,259,5.0,-999.0,56,0.00,,,0.00,Wunderground v.1.15,2013-05-31 19:12:00,
2013-05-31 15:18:00,83.2,65.4,30.12,South,177,5.0,-999.0,55,0.00,,,0.00,Wunderground v.1.15,2013-05-31 19:18:00,
2013-05-31 15:23:00,83.5,65.6,30.12,SSW,213,4.0,-999.0,55,0.00,,,0.00,Wunderground v.1.15,2013-05-31 19:23:00,
2013-05-31 15:29:00,83.0,65.7,30.12,SW,234,4.0,-999.0,56,0.00,,,0.00,Wunderground v.1.15,2013-05-31 19:29:00,
2013-05-31 15:35:00,84.0,65.6,30.12,SSW,211,4.0,-999.0,54,0.00,,,0.00,Wunderground v.1.15,2013-05-31 19:35:00,
2013-05-31 15:41:00,83.9,64.4,30.12,West,279,3.0,-999.0,52,0.00,,,0.00,Wunderground v.1.15,2013-05-31 19:41:00,
2013-05-31 15:47:00,84.4,64.3,30.11,SW,217,3.0,-999.0,51,0.00,,,0.00,Wunderground v.1.15,2013-05-31 19:47:00,
2013-05-31 15:53:00,83.8,64.3,30.11,West,259,3.0,-999.0,52,0.00,,,0.00,Wunderground v.1.15,2013-05-31 19:53:00,
2013-05-31 15:59:00,83.8,64.8,30.10,SE,143,4.0,-999.0,53,0.00,,,0.00,Wunderground v.1.15,2013-05-31 19:59:00,
2013-05-31 16:04:00,84.0,64.5,30.10,South,181,4.0,-999.0,52,0.00,,,0.00,Wunderground v.1.15,2013-05-31 20:04:00,
2013-05-31 16:10:00,84.5,64.9,30.10,WNW,291,4.0,-999.0,52,0.00,,,0.00,Wunderground v.1.15,2013-05-31 20:10:00,
2013-05-31 16:16:00,84.5,64.9,30.10,SW,221,4.0,-999.0,52,0.00,,,0.00,Wunderground v.1.15,2013-05-31 20:16:00,
2013-05-31 16:22:00,84.7,64.6,30.10,SE,135,4.0,-999.0,51,0.00,,,0.00,Wunderground v.1.15,2013-05-31 20:22:00,
2013-05-31 16:27:00,84.6,65.6,30.10,SW,225,3.0,-999.0,53,0.00,,,0.00,Wunderground v.1.15,2013-05-31 20:27:00,
2013-05-31 16:33:00,83.9,64.4,30.10,SW,232,4.0,-999.0,52,0.00,,,0.00,Wunderground v.1.15,2013-05-31 20:33:00,
2013-05-31 16:39:00,83.3,63.8,30.10,SSW,207,4.0,-999.0,52,0.00,,,0.00,Wunderground v.1.15,2013-05-31 20:39:00,
2013-05-31 16:45:00,83.4,63.9,30.09,West,264,3.0,-999.0,52,0.00,,,0.00,Wunderground v.1.15,2013-05-31 20:45:00,
2013-05-31 16:51:00,84.5,64.9,30.09,South,174,4.0,-999.0,52,0.00,,,0.00,Wunderground v.1.15,2013-05-31 20:51:00,
2013-05-31 16:57:00,84.8,65.2,30.09,WSW,240,4.0,-999.0,52,0.00,,,0.00,Wunderground v.1.15,2013-05-31 20:57:00,
2013-05-31 17:03:00,84.2,64.1,30.09,SSW,196,4.0,-999.0,51,0.00,,,0.00,Wunderground v.1.15,2013-05-31 21:03:00,
2013-05-31 17:09:00,83.4,63.9,30.09,SW,217,4.0,-999.0,52,0.00,,,0.00,Wunderground v.1.15,2013-05-31 21:09:00,
2013-05-31 17:15:00,83.0,64.1,30.09,SSE,163,4.0,-999.0,53,0.00,,,0.00,Wunderground v.1.15,2013-05-31 21:15:00,
2013-05-31 17:21:00,82.8,64.5,30.09,WNW,294,4.0,-999.0,54,0.00,,,0.00,Wunderground v.1.15,2013-05-31 21:21:00,
2013-05-31 17:27:00,82.7,64.4,30.09,South,187,4.0,-999.0,54,0.00,,,0.00,Wunderground v.1.15,2013-05-31 21:27:00,
2013-05-31 17:33:00,83.0,65.2,30.09,SSW,200,3.0,-999.0,55,0.00,,,0.00,Wunderground v.1.15,2013-05-31 21:33:00,
2013-05-31 17:39:00,83.5,65.1,30.09,South,174,2.0,-999.0,54,0.00,,,0.00,Wunderground v.1.15,2013-05-31 21:39:00,
2013-05-31 17:45:00,82.5,64.7,30.09,WSW,246,3.0,-999.0,55,0.00,,,0.00,Wunderground v.1.15,2013-05-31 21:45:00,
2013-05-31 17:50:00,83.0,64.6,30.08,South,183,4.0,-999.0,54,0.00,,,0.00,Wunderground v.1.15,2013-05-31 21:50:00,
2013-05-31 17:56:00,83.4,64.5,30.08,West,274,3.0,-999.0,53,0.00,,,0.00,Wunderground v.1.15,2013-05-31 21:56:00,
2013-05-31 18:02:00,83.5,64.6,30.08,WSW,248,4.0,-999.0,53,0.00,,,0.00,Wunderground v.1.15,2013-05-31 22:02:00,
2013-05-31 18:08:00,83.4,64.5,30.08,WSW,239,3.0,-999.0,53,0.00,,,0.00,Wunderground v.1.15,2013-05-31 22:08:00,
2013-05-31 18:13:00,83.1,64.7,30.08,WSW,252,3.0,-999.0,54,0.00,,,0.00,Wunderground v.1.15,2013-05-31 22:13:00,
2013-05-31 18:19:00,82.6,64.3,30.08,SW,225,5.0,-999.0,54,0.00,,,0.00,Wunderground v.1.15,2013-05-31 22:19:00,
2013-05-31 18:25:00,82.9,64.5,30.08,South,187,5.0,-999.0,54,0.00,,,0.00,Wunderground v.1.15,2013-05-31 22:25:00,
2013-05-31 18:31:00,82.7,64.4,30.08,SW,220,4.0,-999.0,54,0.00,,,0.00,Wunderground v.1.15,2013-05-31 22:31:00,
2013-05-31 18:37:00,82.4,64.6,30.08,WSW,240,4.0,-999.0,55,0.00,,,0.00,Wunderground v.1.15,2013-05-31 22:37:00,
2013-05-31 18:43:00,82.2,64.4,30.08,WSW,246,4.0,-999.0,55,0.00,,,0.00,Wunderground v.1.15,2013-05-31 22:43:00,
2013-05-31 18:49:00,82.5,64.7,30.07,WNW,288,4.0,-999.0,55,0.00,,,0.00,Wunderground v.1.15,2013-05-31 22:49:00,
2013-05-31 18:54:00,82.9,65.1,30.08,South,175,3.0,-999.0,55,0.00,,,0.00,Wunderground v.1.15,2013-05-31 22:54:00,
2013-05-31 19:00:00,82.6,64.8,30.08,SSE,167,3.0,-999.0,55,0.00,,,0.00,Wunderground v.1.15,2013-05-31 23:00:00,
2013-05-31 19:06:00,82.8,64.5,30.08,West,262,3.0,-999.0,54,0.00,,,0.00,Wunderground v.1.15,2013-05-31 23:06:00,
2013-05-31 19:12:00,82.9,64.5,30.08,South,178,3.0,-999.0,54,0.00,,,0.00,Wunderground v.1.15,2013-05-31 23:12:00,
2013-05-31 19:17:00,82.7,64.4,30.08,WSW,247,3.0,-999.0,54,0.00,,,0.00,Wunderground v.1.15,2013-05-31 23:17:00,
2013-05-31 19:23:00,82.4,64.6,30.08,WSW,254,3.0,-999.0,55,0.00,,,0.00,Wunderground v.1.15,2013-05-31 23:23:00,
2013-05-31 19:29:00,82.0,64.2,30.08,SW,219,3.0,-999.0,55,0.00,,,0.00,Wunderground v.1.15,2013-05-31 23:29:00,
2013-05-31 19:35:00,81.8,64.6,30.08,SSW,197,3.0,-999.0,56,0.00,,,0.00,Wunderground v.1.15,2013-05-31 23:35:00,
2013-05-31 19:40:00,81.5,64.3,30.08,SSW,211,3.0,-999.0,56,0.00,,,0.00,Wunderground v.1.15,2013-05-31 23:40:00,
2013-05-31 19:46:00,81.4,64.2,30.08,SW,215,3.0,-999.0,56,0.00,,,0.00,Wunderground v.1.15,2013-05-31 23:46:00,
2013-05-31 19:52:00,81.1,64.4,30.08,SW,235,2.0,-999.0,57,0.00,,,0.00,Wunderground v.1.15,2013-05-31 23:52:00,
2013-05-31 19:57:00,80.9,64.2,30.08,WSW,245,3.0,-999.0,57,0.00,,,0.00,Wunderground v.1.15,2013-05-31 23:57:00,
2013-05-31 20:03:00,80.6,64.5,30.08,SW,221,3.0,-999.0,58,0.00,,,0.00,Wunderground v.1.15,2013-06-01 00:03:00,
2013-05-31 20:09:00,80.3,64.2,30.08,SSW,194,3.0,-999.0,58,0.00,,,0.00,Wunderground v.1.15,2013-06-01 00:09:00,
2013-05-31 20:15:00,79.9,64.3,30.08,SSW,195,3.0,-999.0,59,0.00,,,0.00,Wunderground v.1.15,2013-06-01 00:15:00,
2013-05-31 20:20:00,79.6,64.0,30.07,SW,223,2.0,-999.0,59,0.00,,,0.00,Wunderground v.1.15,2013-06-01 00:20:00,
2013-05-31 20:26:00,79.4,63.8,30.08,WSW,244,2.0,-999.0,59,0.00,,,0.00,Wunderground v.1.15,2013-06-01 00:26:00,
2013-05-31 20:32:00,79.1,64.0,30.07,SSW,199,2.0,-999.0,60,0.00,,,0.00,Wunderground v.1.15,2013-06-01 00:32:00,
2013-05-31 20:38:00,78.8,64.2,30.07,SW,214,1.0,-999.0,61,0.00,,,0.00,Wunderground v.1.15,2013-06-01 00:38:00,
2013-05-31 20:44:00,78.6,64.0,30.07,SSW,199,1.0,-999.0,61,0.00,,,0.00,Wunderground v.1.15,2013-06-01 00:44:00,
2013-05-31 20:50:00,78.3,64.2,30.07,WSW,246,1.0,-999.0,62,0.00,,,0.00,Wunderground v.1.15,2013-06-01 00:50:00,
2013-05-31 20:55:00,78.1,64.0,30.07,South,173,1.0,-999.0,62,0.00,,,0.00,Wunderground v.1.15,2013-06-01 00:55:00,
2013-05-31 21:01:00,77.9,64.3,30.08,SW,235,1.0,-999.0,63,0.00,,,0.00,Wunderground v.1.15,2013-06-01 01:01:00,
2013-05-31 21:07:00,77.6,64.5,30.08,South,173,1.0,-999.0,64,0.00,,,0.00,Wunderground v.1.15,2013-06-01 01:07:00,
2013-05-31 21:12:00,77.3,64.2,30.08,WSW,238,1.0,-999.0,64,0.00,,,0.00,Wunderground v.1.15,2013-06-01 01:12:00,
2013-05-31 21:18:00,77.1,64.4,30.08,SSE,159,1.0,-999.0,65,0.00,,,0.00,Wunderground v.1.15,2013-06-01 01:18:00,
2013-05-31 21:24:00,77.0,64.3,30.08,South,171,0.0,-999.0,65,0.00,,,0.00,Wunderground v.1.15,2013-06-01 01:24:00,
2013-05-31 21:30:00,76.8,64.6,30.08,SSW,196,1.0,-999.0,66,0.00,,,0.00,Wunderground v.1.15,2013-06-01 01:30:00,
2013-05-31 21:35:00,76.5,64.7,30.08,SW,229,1.0,-999.0,67,0.00,,,0.00,Wunderground v.1.15,2013-06-01 01:35:00,
2013-05-31 21:41:00,76.3,64.5,30.08,WSW,237,1.0,-999.0,67,0.00,,,0.00,Wunderground v.1.15,2013-06-01 01:41:00,
2013-05-31 21:47:00,76.1,64.8,30.08,SSW,206,0.0,-999.0,68,0.00,,,0.00,Wunderground v.1.15,2013-06-01 01:47:00,
2013-05-31 21:53:00,75.8,64.5,30.08,SSW,195,0.0,-999.0,68,0.00,,,0.00,Wunderground v.1.15,2013-06-01 01:53:00,
2013-05-31 21:58:00,75.7,64.4,30.08,SSW,202,1.0,-999.0,68,0.00,,,0.00,Wunderground v.1.15,2013-06-01 01:58:00,
2013-05-31 22:04:00,75.6,64.7,30.08,South,173,1.0,-999.0,69,0.00,,,0.00,Wunderground v.1.15,2013-06-01 02:04:00,
2013-05-31 22:10:00,75.7,64.8,30.08,SSW,194,1.0,-999.0,69,0.00,,,0.00,Wunderground v.1.15,2013-06-01 02:10:00,
2013-05-31 22:16:00,75.6,64.7,30.09,SSW,203,1.0,-999.0,69,0.00,,,0.00,Wunderground v.1.15,2013-06-01 02:16:00,
2013-05-31 22:21:00,75.5,65.0,30.08,SSW,210,1.0,-999.0,70,0.00,,,0.00,Wunderground v.1.15,2013-06-01 02:21:00,
2013-05-31 22:27:00,75.3,64.8,30.08,South,175,1.0,-999.0,70,0.00,,,0.00,Wunderground v.1.15,2013-06-01 02:27:00,
2013-05-31 22:33:00,75.2,65.1,30.09,SSE,147,1.0,-999.0,71,0.00,,,0.00,Wunderground v.1.15,2013-06-01 02:33:00,
2013-05-31 22:39:00,75.1,65.1,30.08,South,176,1.0,-999.0,71,0.00,,,0.00,Wunderground v.1.15,2013-06-01 02:39:00,
2013-05-31 22:44:00,75.1,65.1,30.08,SSW,207,1.0,-999.0,71,0.00,,,0.00,Wunderground v.1.15,2013-06-01 02:44:00,
2013-05-31 22:50:00,74.9,64.9,30.08,SW,232,1.0,-999.0,71,0.00,,,0.00,Wunderground v.1.15,2013-06-01 02:50:00,
2013-05-31 22:56:00,74.9,64.9,30.08,WSW,238,1.0,-999.0,71,0.00,,,0.00,Wunderground v.1.15,2013-06-01 02:56:00,
2013-05-31 23:02:00,74.8,64.8,30.08,WSW,254,1.0,-999.0,71,0.00,,,0.00,Wunderground v.1.15,2013-06-01 03:02:00,
2013-05-31 23:08:00,74.9,64.9,30.08,South,178,1.0,-999.0,71,0.00,,,0.00,Wunderground v.1.15,2013-06-01 03:08:00,
2013-05-31 23:14:00,74.9,64.9,30.08,West,263,1.0,-999.0,71,0.00,,,0.00,Wunderground v.1.15,2013-06-01 03:14:00,
2013-05-31 23:20:00,74.8,64.8,30.08,SSE,159,1.0,-999.0,71,0.00,,,0.00,Wunderground v.1.15,2013-06-01 03:20:00,
2013-05-31 23:25:00,74.8,64.8,30.08,SSW,205,1.0,-999.0,71,0.00,,,0.00,Wunderground v.1.15,2013-06-01 03:25:00,
2013-05-31 23:31:00,74.8,65.2,30.08,SW,235,2.0,-999.0,72,0.00,,,0.00,Wunderground v.1.15,2013-06-01 03:31:00,
2013-05-31 23:37:00,74.8,65.2,30.08,SSE,156,3.0,-999.0,72,0.00,,,0.00,Wunderground v.1.15,2013-06-01 03:37:00,
2013-05-31 23:43:00,74.9,65.7,30.08,SSE,161,4.0,-999.0,73,0.00,,,0.00,Wunderground v.1.15,2013-06-01 03:43:00,
2013-05-31 23:48:00,74.7,65.9,30.08,SW,229,4.0,-999.0,74,0.00,,,0.00,Wunderground v.1.15,2013-06-01 03:48:00,
2013-05-31 23:54:00,74.6,66.1,30.08,South,184,3.0,-999.0,75,0.00,,,0.00,Wunderground v.1.15,2013-06-01 03:54:00,